OHFUK FSIA-FSIA

Flight info

Callsign OHFUK
Flight time 0h 21m
Altitude 1000
Route DCT
Aircraft PC12/L-SBDFGRWZ/EB2

Departure

Time 2026-05-08 22:30
Airport Seychelles International Airport (FSIA)

Arrival

Time 2026-05-08 22:51
Airport Seychelles International Airport (FSIA)
Time Latitude Longitude Altitude Speed Heading
2026-05-08 22:15 -4.66966 55.51190 20 ft 0 kts 125°
2026-05-08 22:27 -4.66998 55.51235 19 ft 12 kts 126°
2026-05-08 22:27 -4.66977 55.51314 18 ft 14 kts 38°
2026-05-08 22:27 -4.66959 55.51328 18 ft 0 kts 39°
2026-05-08 22:28 -4.66934 55.51349 19 ft 9 kts 40°
2026-05-08 22:29 -4.66887 55.51409 19 ft 16 kts 114°
2026-05-08 22:29 -4.67019 55.51597 19 ft 63 kts 126°
2026-05-08 22:29 -4.67329 55.52049 214 ft 84 kts 127°
2026-05-08 22:29 -4.67651 55.52559 410 ft 90 kts 129°
2026-05-08 22:30 -4.68001 55.53052 555 ft 83 kts 131°
2026-05-08 22:30 -4.67982 55.53601 690 ft 98 kts 48°
2026-05-08 22:30 -4.67295 55.53539 856 ft 111 kts 318°
2026-05-08 22:30 -4.66783 55.52941 997 ft 116 kts 310°
2026-05-08 22:31 -4.66257 55.52305 1030 ft 117 kts 310°
2026-05-08 22:31 -4.65755 55.51681 1048 ft 119 kts 309°
2026-05-08 22:31 -4.65241 55.51054 1147 ft 116 kts 310°
2026-05-08 22:31 -4.64720 55.50436 1175 ft 119 kts 309°
2026-05-08 22:32 -4.64266 55.49895 1148 ft 119 kts 309°
2026-05-08 22:33 -4.63982 55.49549 1182 ft 115 kts 309°
2026-05-08 22:33 -4.63478 55.48896 1070 ft 124 kts 306°
2026-05-08 22:34 -4.62992 55.48176 958 ft 119 kts 286°
2026-05-08 22:34 -4.63161 55.47491 883 ft 99 kts 221°
2026-05-08 22:34 -4.63742 55.47330 638 ft 91 kts 159°
2026-05-08 22:34 -4.64211 55.47688 523 ft 81 kts 142°
2026-05-08 22:35 -4.64565 55.48122 541 ft 85 kts 134°
2026-05-08 22:35 -4.64927 55.48619 641 ft 89 kts 130°
2026-05-08 22:35 -4.65291 55.49156 643 ft 95 kts 130°
2026-05-08 22:35 -4.65682 55.49697 538 ft 92 kts 129°
2026-05-08 22:36 -4.66021 55.50180 392 ft 80 kts 129°
2026-05-08 22:36 -4.66324 55.50616 261 ft 73 kts 130°
2026-05-08 22:36 -4.66622 55.51033 126 ft 75 kts 129°
2026-05-08 22:36 -4.66917 55.51454 30 ft 70 kts 128°
2026-05-08 22:37 -4.67172 55.51817 19 ft 57 kts 125°
2026-05-08 22:37 -4.67451 55.52228 197 ft 78 kts 129°
2026-05-08 22:37 -4.67801 55.52708 370 ft 88 kts 131°
2026-05-08 22:37 -4.68162 55.53196 578 ft 88 kts 131°
2026-05-08 22:38 -4.68388 55.53769 770 ft 102 kts 86°
2026-05-08 22:38 -4.67808 55.54212 992 ft 117 kts 11°
2026-05-08 22:38 -4.67039 55.53959 1168 ft 125 kts 314°
2026-05-08 22:38 -4.66546 55.53204 1199 ft 140 kts 306°
2026-05-08 22:39 -4.65853 55.52489 1145 ft 142 kts 332°
2026-05-08 22:39 -4.64966 55.52459 953 ft 123 kts 33°
2026-05-08 22:39 -4.64568 55.53061 879 ft 101 kts 102°
2026-05-08 22:39 -4.65064 55.53409 843 ft 102 kts 190°
2026-05-08 22:40 -4.65483 55.52846 850 ft 118 kts 267°
2026-05-08 22:40 -4.65026 55.52191 1002 ft 117 kts 324°
2026-05-08 22:40 -4.64270 55.51937 1133 ft 115 kts
2026-05-08 22:40 -4.63729 55.52432 1047 ft 115 kts 91°
2026-05-08 22:41 -4.64144 55.52941 1020 ft 104 kts 177°
2026-05-08 22:41 -4.64600 55.52446 1017 ft 115 kts 268°
2026-05-08 22:41 -4.64238 55.51750 978 ft 114 kts 302°
2026-05-08 22:41 -4.63979 55.51085 996 ft 97 kts 259°
2026-05-08 22:42 -4.63697 55.50433 1047 ft 111 kts 323°
2026-05-08 22:42 -4.62947 55.50446 1120 ft 113 kts 44°
2026-05-08 22:42 -4.62869 55.51111 1300 ft 102 kts 134°
2026-05-08 22:42 -4.63527 55.51180 1365 ft 117 kts 211°
2026-05-08 22:43 -4.63757 55.50336 1085 ft 145 kts 285°
2026-05-08 22:43 -4.63094 55.49659 937 ft 132 kts 342°
2026-05-08 22:43 -4.62335 55.49900 880 ft 112 kts 60°
2026-05-08 22:43 -4.62450 55.50532 825 ft 102 kts 149°
2026-05-08 22:44 -4.63088 55.50412 884 ft 103 kts 221°
2026-05-08 22:44 -4.63228 55.49690 815 ft 116 kts 278°
2026-05-08 22:44 -4.62809 55.48982 723 ft 118 kts 309°
2026-05-08 22:44 -4.62052 55.48736 828 ft 116 kts 21°
2026-05-08 22:45 -4.61628 55.49366 824 ft 118 kts 102°
2026-05-08 22:45 -4.62120 55.49856 975 ft 110 kts 175°
2026-05-08 22:45 -4.62728 55.49421 1049 ft 123 kts 243°
2026-05-08 22:45 -4.62735 55.48549 961 ft 130 kts 284°
2026-05-08 22:46 -4.62167 55.47905 816 ft 127 kts 338°
2026-05-08 22:46 -4.61375 55.48056 790 ft 112 kts 54°
2026-05-08 22:46 -4.61281 55.48746 697 ft 98 kts 114°
2026-05-08 22:46 -4.61501 55.49355 692 ft 90 kts 121°
2026-05-08 22:47 -4.61887 55.49835 747 ft 91 kts 136°
2026-05-08 22:47 -4.62349 55.50276 845 ft 96 kts 136°
2026-05-08 22:47 -4.62821 55.50795 958 ft 106 kts 134°
2026-05-08 22:47 -4.63315 55.51304 1122 ft 100 kts 134°
2026-05-08 22:48 -4.63787 55.51830 1052 ft 99 kts 133°
2026-05-08 22:48 -4.64294 55.52211 1013 ft 87 kts 154°
2026-05-08 22:48 -4.64536 55.52708 908 ft 98 kts 72°
2026-05-08 22:48 -4.63914 55.52923 880 ft 105 kts 333°
2026-05-08 22:49 -4.63544 55.52340 843 ft 97 kts 276°
2026-05-08 22:49 -4.63462 55.50900 1019 ft 106 kts 243°
2026-05-08 22:49 -4.63952 55.50357 1022 ft 106 kts 212°
2026-05-08 22:50 -4.64525 55.49931 824 ft 100 kts 209°
2026-05-08 22:50 -4.65033 55.49672 744 ft 71 kts 191°
2026-05-08 22:50 -4.65470 55.49617 570 ft 64 kts 157°
2026-05-08 22:50 -4.65797 55.49891 358 ft 63 kts 124°
2026-05-08 22:51 -4.66049 55.50240 276 ft 62 kts 128°
2026-05-08 22:51 -4.66319 55.50606 185 ft 67 kts 126°
2026-05-08 22:51 -4.66577 55.50969 70 ft 62 kts 123°
2026-05-08 22:51 -4.66796 55.51282 22 ft 35 kts 124°
2026-05-08 22:52 -4.66859 55.51372 20 ft 18 kts 126°
2026-05-08 22:52 -4.66934 55.51359 19 ft 16 kts 212°
2026-05-08 22:52 -4.66954 55.51345 18 ft 0 kts 213°
2026-05-08 22:52 -4.66975 55.51332 18 ft 8 kts 211°
2026-05-08 22:53 -4.67011 55.51266 18 ft 15 kts 291°
2026-05-08 22:53 -4.66983 55.51220 19 ft 0 kts 302°
2026-05-08 22:53 -4.66984 55.51210 19 ft 4 kts 232°
2026-05-08 22:53 -4.67005 55.51220 19 ft 6 kts 148°
2026-05-08 22:54 -4.67033 55.51204 19 ft 5 kts 209°
2026-05-08 22:54 -4.67054 55.51191 19 ft 0 kts 214°
2026-05-08 23:02 -4.67125 55.51296 17 ft 0 kts 214°
2026-05-08 23:03 -4.67083 55.51297 16 ft 0 kts 214°
2026-05-08 23:03 -4.67088 55.51264 16 ft 0 kts 214°
2026-05-08 23:03 -4.67389 55.51051 873 ft 80 kts 200°
2026-05-08 23:03 -4.66041 55.52066 1229 ft 0 kts 290°
2026-05-08 23:04 -4.65789 55.52969 1671 ft 66 kts 300°
2026-05-08 23:04 -4.66321 55.53022 569 ft 134 kts 198°
2026-05-08 23:04 -4.66795 55.52285 279 ft 140 kts 257°
2026-05-08 23:04 -4.66735 55.51421 386 ft 112 kts 313°
2026-05-08 23:05 -4.66613 55.50864 203 ft 98 kts 195°
2026-05-08 23:05 -4.66983 55.51245 16 ft 55 kts 128°
2026-05-08 23:05 -4.67026 55.51291 14 ft 0 kts 140°
2026-05-08 23:08 -4.67026 55.51292 44 ft 0 kts 282°
2026-05-08 23:08 -4.67026 55.51305 16 ft 0 kts 224°
2026-05-08 23:08 -4.67016 55.51314 16 ft 0 kts 218°
2026-05-08 23:09 -4.67045 55.51270 68 ft 0 kts 251°
2026-05-08 23:09 -4.67045 55.51269 24 ft 0 kts 108°
2026-05-08 23:09 -4.66995 55.51300 17 ft 757 kts 248°
2026-05-08 23:09 -4.67009 55.51299 17 ft 0 kts 172°